CW0212 Weather Reports


Display with metric or nautical units.
time (UTC)temp
F
wind
direction
speed
MPH
gust
MPH
rain 1hr
in
rain 24hr
in
rain mn
in
humidity
%
barometer
mb
20180622051105 73 338 0.0 1.0 0.00 0.22 0.00 90 1011.0
20180622050606 73 338 0.0 0.0 0.00 0.22 0.00 90 1011.0
20180622050118 73 338 0.0 0.0 0.00 0.22 0.00 90 1011.0
20180622045600 74 338 0.0 1.0 0.00 0.22 0.00 90 1011.0
20180622045113 74 338 0.0 1.0 0.00 0.22 0.00 90 1011.0
20180622044604 74 338 0.0 0.0 0.00 0.22 0.00 90 1011.0
20180622044104 74 338 0.0 0.0 0.00 0.22 0.00 90 1011.1
20180622043605 74 338 0.0 1.0 0.00 0.22 0.00 90 1011.1
20180622043104 74 338 0.0 0.0 0.00 0.22 0.00 90 1011.1
20180622042613 74 338 0.0 0.0 0.00 0.22 0.00 90 1011.1
20180622042113 74 338 0.0 0.0 0.00 0.22 0.00 90 1011.1
20180622041612 74 338 0.0 0.0 0.00 0.22 0.00 90 1011.1
20180622041057 74 338 0.0 0.0 0.00 0.22 0.00 90 1011.1
20180622040558 74 338 0.0 0.0 0.00 0.22 0.00 90 1011.1
20180622040112 74 338 0.0 0.0 0.00 0.22 0.00 90 1011.1
20180622035558 74 338 0.0 0.0 0.00 0.22 0.22 90 1011.0
20180622035101 74 338 0.0 0.0 0.00 0.22 0.22 90 1011.0
20180622034606 74 338 0.0 0.0 0.00 0.22 0.22 90 1011.0
20180622034106 74 338 0.0 0.0 0.00 0.22 0.22 90 1011.0
20180622033610 74 338 0.0 0.0 0.00 0.22 0.22 90 1011.0
20180622033111 74 338 0.0 1.0 0.00 0.22 0.22 90 1011.0
20180622032557 75 338 0.0 0.0 0.00 0.22 0.22 90 1010.9
20180622032100 75 338 0.0 0.0 0.00 0.22 0.22 89 1010.9
20180622031600 75 338 0.0 1.0 0.00 0.22 0.22 89 1010.9
20180622031100 75 274 0.0 0.0 0.00 0.22 0.22 89 1010.9
20180622030600 75 274 0.0 0.0 0.00 0.22 0.22 89 1010.9
20180622030113 75 274 0.0 0.0 0.00 0.22 0.22 89 1010.9
20180622025600 75 274 0.0 1.0 0.00 0.22 0.22 88 1011.0
20180622025101 75 274 0.0 0.0 0.00 0.22 0.22 88 1011.0
20180622024600 75 274 0.0 0.0 0.00 0.22 0.22 88 1011.0
20180622024102 75 274 0.0 0.0 0.00 0.22 0.22 88 1011.0
20180622023602 75 274 0.0 0.0 0.00 0.22 0.22 88 1011.0
20180622023101 75 274 0.0 0.0 0.00 0.22 0.22 88 1011.0
20180622022606 75 274 0.0 0.0 0.00 0.22 0.22 88 1011.0
20180622022106 75 274 0.0 0.0 0.00 0.22 0.22 88 1011.0
20180622021606 75 274 0.0 0.0 0.00 0.22 0.22 87 1011.0
20180622021107 75 274 0.0 0.0 0.00 0.22 0.22 88 1010.9
20180622020610 75 274 0.0 0.0 0.00 0.22 0.22 88 1010.9
20180622020122 76 274 0.0 0.0 0.00 0.22 0.22 88 1010.9
20180622015606 76 274 0.0 0.0 0.00 0.22 0.22 88 1010.7
20180622015105 76 274 0.0 1.0 0.00 0.22 0.22 87 1010.7
20180622014606 76 274 0.0 1.0 0.00 0.22 0.22 87 1010.7
20180622014106 76 14 0.0 0.0 0.00 0.22 0.22 87 1010.9
20180622013610 76 14 0.0 0.0 0.00 0.22 0.22 87 1010.9
20180622013111 76 14 0.0 1.0 0.00 0.22 0.22 87 1010.9
20180622012556 76 14 0.0 1.0 0.00 0.22 0.22 87 1010.5
20180622012057 76 14 0.0 0.0 0.00 0.22 0.22 86 1010.5
20180622011601 76 14 0.0 0.0 0.00 0.22 0.22 86 1010.5
20180622011101 76 14 0.0 1.0 0.00 0.22 0.22 86 1010.4
20180622010601 76 14 0.0 1.0 0.00 0.22 0.22 86 1010.4
20180622010132 77 14 0.0 0.0 0.00 0.22 0.22 85 1010.4
20180622005556 77 14 0.0 0.0 0.00 0.22 0.22 85 1010.3
20180622005100 77 14 0.0 0.0 0.00 0.22 0.22 84 1010.3
20180622004600 77 14 0.0 0.0 0.00 0.22 0.22 84 1010.3
20180622004100 77 14 0.0 0.0 0.00 0.22 0.22 84 1010.2
20180622003600 78 14 0.0 0.0 0.00 0.22 0.22 84 1010.2
20180622003101 78 14 0.0 0.0 0.00 0.22 0.22 83 1010.2
20180622002601 78 14 0.0 0.0 0.00 0.22 0.22 83 1010.0
20180622002106 78 14 0.0 0.0 0.00 0.22 0.22 82 1010.0
20180622001606 78 14 0.0 1.0 0.00 0.22 0.22 81 1010.0
20180622001106 79 14 0.0 2.0 0.00 0.22 0.22 81 1009.9
20180622000607 79 19 0.0 2.0 0.00 0.22 0.22 81 1009.9
20180622000116 79 303 0.0 2.0 0.00 0.22 0.22 80 1009.9
20180621235603 79 303 0.0 2.0 0.00 0.22 0.22 79 1009.9
20180621235104 80 263 0.0 1.0 0.00 0.22 0.22 80 1009.9
20180621234605 80 263 0.0 1.0 0.00 0.22 0.22 80 1009.9
20180621234108 81 263 0.0 2.0 0.00 0.22 0.22 77 1009.9
20180621233613 81 263 0.0 2.0 0.00 0.22 0.22 74 1009.9
20180621233112 81 253 0.0 2.0 0.00 0.22 0.22 77 1009.9
20180621232613 81 336 0.0 2.0 0.00 0.22 0.22 75 1009.9
20180621232057 81 335 0.0 2.0 0.00 0.22 0.22 78 1009.9
20180621231558 81 327 0.0 2.0 0.00 0.22 0.22 79 1009.9
20180621231102 82 327 0.0 2.0 0.00 0.22 0.22 77 1009.8
20180621230602 82 306 0.0 1.0 0.00 0.22 0.22 76 1009.8
20180621230116 81 307 0.0 1.0 0.00 0.22 0.22 78 1009.8
20180621225559 81 307 0.0 3.0 0.00 0.22 0.22 79 1009.5
20180621225059 82 307 0.0 3.0 0.00 0.22 0.22 75 1009.5
20180621224600 81 271 1.0 3.0 0.00 0.22 0.22 79 1009.5
20180621224100 80 360 0.0 2.0 0.00 0.22 0.22 79 1009.4
20180621223600 80 339 0.0 3.0 0.00 0.22 0.22 80 1009.4
20180621223100 81 344 0.0 3.0 0.00 0.22 0.22 78 1009.4
20180621222559 82 39 0.0 4.0 0.00 0.22 0.22 76 1009.6
20180621222100 82 313 0.0 5.0 0.00 0.22 0.22 78 1009.6
20180621221605 83 109 0.0 5.0 0.00 0.22 0.22 78 1009.6
20180621221105 82 350 0.0 2.0 0.00 0.22 0.22 79 1009.4
20180621220606 81 42 0.0 2.0 0.00 0.22 0.22 81 1009.4
20180621220117 81 75 0.0 3.0 0.00 0.22 0.22 77 1009.4
20180621215604 81 36 0.0 3.0 0.00 0.22 0.22 78 1009.5
20180621215104 81 9 0.0 2.0 0.00 0.22 0.22 80 1009.5
20180621214603 80 355 0.0 2.0 0.00 0.22 0.22 82 1009.5
20180621214104 79 355 0.0 2.0 0.00 0.22 0.22 82 1009.8
20180621213603 80 340 0.0 0.0 0.00 0.22 0.22 80 1009.8
20180621213107 81 340 0.0 3.0 0.00 0.22 0.22 80 1009.8
20180621212608 81 340 0.0 4.0 0.00 0.22 0.22 82 1009.9
20180621212110 81 290 0.0 6.0 0.00 0.22 0.22 78 1009.9
20180621211655 82 246 1.0 6.0 0.00 0.22 0.22 76 1009.9
20180621211105 81 319 0.0 3.0 0.00 0.22 0.22 79 1010.0
20180621210606 81 298 0.0 3.0 0.00 0.22 0.22 78 1010.0
20180621210125 81 308 0.0 3.0 0.01 0.22 0.22 80 1010.0
20180621205609 81 308 0.0 4.0 0.01 0.22 0.22 81 1010.0
20180621205050 81 292 0.0 4.0 0.01 0.22 0.22 83 1010.0
20180621204557 80 324 0.0 1.0 0.01 0.22 0.22 84 1010.0
20180621204101 80 312 0.0 4.0 0.01 0.22 0.22 85 1010.0
20180621203601 80 312 0.0 4.0 0.01 0.22 0.22 87 1010.0
20180621203102 78 303 0.0 1.0 0.01 0.22 0.22 91 1010.0
20180621202603 78 303 0.0 2.0 0.01 0.22 0.22 90 1010.1
20180621202105 78 303 0.0 2.0 0.01 0.22 0.22 89 1010.1
20180621201605 77 323 0.0 2.0 0.01 0.22 0.22 90 1010.1
20180621201105 77 323 0.0 2.0 0.01 0.22 0.22 90 1010.2
20180621200604 77 323 0.0 0.0 0.00 0.21 0.21 91 1010.2
20180621200120 78 323 0.0 2.0 0.00 0.21 0.21 90 1010.2
20180621195601 79 319 0.0 1.0 0.00 0.21 0.21 90 1010.4
20180621195109 79 313 0.0 3.0 0.00 0.21 0.21 90 1010.4
20180621194609 79 313 0.0 3.0 0.06 0.21 0.21 88 1010.4
20180621194110 79 308 0.0 7.0 0.06 0.21 0.21 88 1010.7
20180621193554 80 308 0.0 7.0 0.06 0.21 0.21 84 1010.7
20180621193057 80 150 0.0 3.0 0.06 0.21 0.21 86 1010.7
20180621192557 80 288 0.0 2.0 0.06 0.21 0.21 89 1010.8
20180621192100 79 336 0.0 1.0 0.06 0.21 0.21 92 1010.8
20180621191600 78 336 0.0 2.0 0.06 0.21 0.21 91 1010.8
20180621191103 77 51 0.0 0.0 0.06 0.21 0.21 95 1011.0
20180621190604 76 51 0.0 0.0 0.06 0.21 0.21 94 1011.0
20180621190120 76 51 0.0 0.0 0.06 0.21 0.21 93 1011.0
20180621185603 76 51 0.0 2.0 0.06 0.21 0.21 94 1011.2
20180621185103 76 51 0.0 2.0 0.06 0.21 0.21 90 1011.2
20180621184603 77 173 0.0 3.0 0.00 0.15 0.15 89 1011.2
20180621184104 78 178 0.0 3.0 0.00 0.15 0.15 88 1011.4
20180621183604 79 190 0.0 2.0 0.00 0.15 0.15 86 1011.4
20180621183105 80 338 0.0 1.0 0.00 0.15 0.15 85 1011.4
20180621182607 80 337 0.0 1.0 0.00 0.15 0.15 84 1011.6
20180621182110 79 337 0.0 1.0 0.00 0.15 0.15 84 1011.6
20180621181615 79 284 0.0 1.0 0.00 0.15 0.15 86 1011.6
20180621181116 79 284 0.0 1.0 0.00 0.15 0.15 87 1011.9
20180621180556 78 284 0.0 1.0 0.00 0.15 0.15 88 1011.9
20180621180128 78 300 0.0 1.0 0.00 0.15 0.15 85 1011.9
20180621175616 79 294 0.0 4.0 0.00 0.15 0.15 85 1012.1
20180621175057 79 69 1.0 4.0 0.01 0.15 0.15 86 1012.1
20180621174558 79 13 0.0 4.0 0.01 0.15 0.15 88 1012.1
20180621174058 78 297 1.0 4.0 0.02 0.15 0.15 87 1012.2
20180621173558 79 311 0.0 4.0 0.02 0.15 0.15 85 1012.2
20180621173058 80 319 0.0 3.0 0.02 0.15 0.15 89 1012.2
20180621172559 79 13 0.0 4.0 0.03 0.15 0.15 93 1012.4
20180621172102 77 49 0.0 4.0 0.04 0.15 0.15 92 1012.4
20180621171605 77 304 0.0 3.0 0.04 0.15 0.15 91 1012.4
20180621171104 77 13 0.0 3.0 0.04 0.15 0.15 92 1012.6
20180621170605 76 243 0.0 1.0 0.04 0.15 0.15 93 1012.6
20180621170117 76 260 0.0 1.0 0.04 0.15 0.15 94 1012.6
20180621165605 75 319 0.0 1.0 0.04 0.15 0.15 94 1012.9
20180621165105 75 319 0.0 1.0 0.03 0.14 0.14 94 1012.9
20180621164606 75 317 0.0 0.0 0.03 0.14 0.14 93 1012.9
20180621164109 75 316 0.0 8.0 0.02 0.13 0.13 93 1013.1
20180621163613 75 297 1.0 8.0 0.02 0.13 0.13 91 1013.1
20180621163054 75 143 0.0 1.0 0.02 0.13 0.13 92 1013.1
20180621162558 76 142 0.0 1.0 0.01 0.12 0.12 91 1013.3
20180621162059 76 224 0.0 0.0 0.00 0.11 0.11 92 1013.3
20180621161602 77 224 0.0 1.0 0.00 0.11 0.11 91 1013.3
20180621161106 77 221 0.0 0.0 0.00 0.11 0.11 91 1013.3
20180621160606 77 221 0.0 0.0 0.00 0.11 0.11 90 1013.3
20180621160118 77 221 0.0 1.0 0.00 0.11 0.11 90 1013.3
20180621155605 77 221 0.0 1.0 0.00 0.11 0.11 88 1013.4
20180621155105 77 221 0.0 1.0 0.00 0.11 0.11 87 1013.4
20180621154604 77 221 0.0 1.0 0.00 0.11 0.11 87 1013.4
20180621154110 77 221 0.0 1.0 0.00 0.11 0.11 89 1013.4
20180621153610 77 221 0.0 2.0 0.00 0.11 0.11 91 1013.4
20180621153111 77 221 0.0 2.0 0.00 0.11 0.11 89 1013.4
20180621152612 76 213 0.0 1.0 0.00 0.11 0.11 90 1013.5
20180621152116 76 214 0.0 0.0 0.00 0.11 0.11 93 1013.5
20180621151615 76 213 0.0 1.0 0.00 0.11 0.11 94 1013.5
20180621151056 76 214 0.0 1.0 0.00 0.11 0.11 92 1013.3
20180621150557 76 134 0.0 0.0 0.00 0.11 0.11 93 1013.3
20180621150110 75 134 0.0 0.0 0.00 0.11 0.11 94 1013.3
20180621145600 75 135 0.0 0.0 0.00 0.11 0.11 95 1013.4
20180621145104 75 135 0.0 0.0 0.00 0.11 0.11 95 1013.4
20180621144608 75 135 0.0 0.0 0.00 0.11 0.11 95 1013.4
20180621144112 75 135 0.0 0.0 0.00 0.11 0.11 95 1013.6
20180621143613 75 135 0.0 0.0 0.00 0.11 0.11 95 1013.6
20180621143114 74 135 0.0 0.0 0.00 0.11 0.11 95 1013.6
20180621142615 74 135 0.0 0.0 0.00 0.11 0.11 95 1013.6
20180621142056 74 135 0.0 0.0 0.00 0.11 0.11 95 1013.6
20180621141559 74 135 0.0 0.0 0.00 0.11 0.11 95 1013.6
20180621141102 74 135 0.0 0.0 0.00 0.11 0.11 96 1013.7
20180621140605 74 135 0.0 0.0 0.00 0.11 0.11 95 1013.7
20180621140117 74 135 0.0 0.0 0.01 0.11 0.11 95 1013.7
20180621135604 74 135 0.0 0.0 0.01 0.11 0.11 95 1013.8
20180621135104 74 135 0.0 0.0 0.01 0.11 0.11 95 1013.8
20180621134604 74 251 0.0 0.0 0.01 0.11 0.11 95 1013.8
20180621134104 74 251 0.0 0.0 0.01 0.11 0.11 95 1014.0
20180621133607 74 251 0.0 0.0 0.01 0.11 0.11 95 1014.0
20180621133112 74 251 0.0 0.0 0.01 0.11 0.11 95 1014.0
20180621132612 74 251 0.0 0.0 0.02 0.11 0.11 95 1014.0
20180621132113 74 251 0.0 0.0 0.02 0.11 0.11 95 1014.0
20180621131613 73 251 0.0 0.0 0.02 0.11 0.11 95 1014.0
20180621131114 74 251 0.0 0.0 0.02 0.11 0.11 95 1014.0
20180621130553 74 251 0.0 0.0 0.02 0.11 0.11 95 1014.0
20180621130128 73 251 0.0 0.0 0.02 0.10 0.10 95 1014.0
20180621125556 73 251 0.0 0.0 0.03 0.10 0.10 94 1013.9
20180621125059 73 251 0.0 0.0 0.04 0.10 0.10 94 1013.9
20180621124559 73 251 0.0 0.0 0.04 0.10 0.10 94 1013.9
20180621124059 73 251 0.0 0.0 0.05 0.10 0.10 94 1013.8
20180621123559 73 251 0.0 0.0 0.07 0.10 0.10 94 1013.8
20180621123059 73 251 0.0 0.0 0.08 0.10 0.10 93 1013.8
20180621122600 73 251 0.0 0.0 0.08 0.09 0.09 93 1013.9
20180621122104 73 251 0.0 0.0 0.09 0.09 0.09 93 1013.9
20180621121605 73 251 0.0 0.0 0.09 0.09 0.09 93 1013.9
20180621121105 73 251 0.0 0.0 0.09 0.09 0.09 92 1013.8
20180621120606 73 251 0.0 0.0 0.09 0.09 0.09 92 1013.8
20180621120117 73 251 0.0 0.0 0.07 0.07 0.07 92 1013.8
20180621115601 74 251 0.0 0.0 0.07 0.07 0.07 91 1013.7
20180621115110 74 251 0.0 0.0 0.06 0.06 0.06 91 1013.7
20180621114610 74 251 0.0 0.0 0.06 0.06 0.06 90 1013.7
20180621114114 74 251 0.0 0.0 0.05 0.05 0.05 89 1013.8
20180621113614 74 251 0.0 0.0 0.03 0.03 0.03 88 1013.8
20180621113055 74 251 0.0 0.0 0.02 0.02 0.02 88 1013.8
20180621112558 74 251 0.0 0.0 0.01 0.01 0.01 88 1013.4
20180621112102 74 251 0.0 0.0 0.00 0.00 0.00 87 1013.4
20180621111602 74 251 0.0 0.0 0.00 0.00 0.00 87 1013.4
20180621111103 74 251 0.0 0.0 0.00 0.00 0.00 87 1013.2
20180621110606 74 251 0.0 0.0 0.00 0.00 0.00 86 1013.2
20180621110138 74 251 0.0 0.0 0.00 0.00 0.00 86 1013.2
20180621105554 74 251 0.0 0.0 0.00 0.00 0.00 86 1013.2
20180621105101 74 251 0.0 0.0 0.00 0.00 0.00 86 1013.2
20180621104657 74 251 0.0 0.0 0.00 0.00 0.00 86 1013.2
20180621104057 74 251 0.0 0.0 0.00 0.00 0.00 85 1013.1
20180621103601 74 251 0.0 0.0 0.00 0.00 0.00 85 1013.1
20180621103102 74 251 0.0 0.0 0.00 0.00 0.00 85 1013.1
20180621102602 74 251 0.0 0.0 0.00 0.00 0.00 85 1012.9
20180621102102 74 251 0.0 0.0 0.00 0.00 0.00 85 1012.9
20180621101602 74 251 0.0 0.0 0.00 0.00 0.00 85 1012.9
20180621101105 74 251 0.0 0.0 0.00 0.00 0.00 84 1012.9
20180621100608 74 251 0.0 0.0 0.00 0.00 0.00 84 1012.9
20180621100124 75 251 0.0 0.0 0.00 0.00 0.00 84 1012.9
20180621095606 75 251 0.0 0.0 0.00 0.00 0.00 84 1012.7
20180621095111 75 251 0.0 0.0 0.00 0.00 0.00 84 1012.7
20180621094611 75 251 0.0 0.0 0.00 0.00 0.00 84 1012.7
20180621094111 75 251 0.0 0.0 0.00 0.00 0.00 84 1012.7
20180621093616 75 251 0.0 0.0 0.00 0.00 0.00 84 1012.7
20180621093057 75 251 0.0 0.0 0.00 0.00 0.00 83 1012.7
20180621092612 75 251 0.0 0.0 0.00 0.00 0.00 83 1012.6
20180621092117 75 251 0.0 0.0 0.00 0.00 0.00 83 1012.6
20180621091114 75 251 0.0 0.0 0.00 0.00 0.00 84 1012.7
20180621090615 75 251 0.0 0.0 0.00 0.00 0.00 84 1012.7
20180621090127 75 251 0.0 0.0 0.00 0.00 0.00 83 1012.7
20180621085632 75 251 0.0 0.0 0.00 0.00 0.00 83 1012.8
20180621085057 75 251 0.0 0.0 0.00 0.00 0.00 83 1012.8
20180621084558 76 251 0.0 0.0 0.00 0.00 0.00 83 1012.8
20180621084159 76 251 0.0 0.0 0.00 0.00 0.00 83 1013.0
20180621083607 76 251 0.0 0.0 0.00 0.00 0.00 83 1013.0
20180621083111 76 251 0.0 0.0 0.00 0.00 0.00 83 1013.0
20180621082612 76 251 0.0 0.0 0.00 0.00 0.00 83 1013.1
20180621082112 76 251 0.0 0.0 0.00 0.00 0.00 83 1013.1
20180621081600 76 251 0.0 0.0 0.00 0.00 0.00 83 1013.1
20180621081101 76 251 0.0 0.0 0.00 0.00 0.00 83 1013.1
20180621080602 76 251 0.0 0.0 0.00 0.00 0.00 82 1013.1
20180621080114 76 251 0.0 0.0 0.00 0.00 0.00 82 1013.1
20180621075558 76 251 0.0 0.0 0.00 0.00 0.00 82 1013.1
20180621075101 76 251 0.0 0.0 0.00 0.00 0.00 82 1013.1
20180621074603 76 251 0.0 0.0 0.00 0.00 0.00 82 1013.1
20180621074104 76 251 0.0 0.0 0.00 0.00 0.00 82 1013.2
20180621073608 76 251 0.0 0.0 0.00 0.00 0.00 82 1013.2
20180621073109 76 251 0.0 0.0 0.00 0.00 0.00 82 1013.2
20180621072610 76 251 0.0 0.0 0.00 0.00 0.00 82 1013.4
20180621072114 76 251 0.0 0.0 0.00 0.00 0.00 82 1013.4
20180621071559 76 251 0.0 0.0 0.00 0.00 0.00 82 1013.4
20180621071100 76 251 0.0 0.0 0.00 0.00 0.00 82 1013.6
20180621070602 76 251 0.0 0.0 0.00 0.00 0.00 81 1013.6
20180621070118 76 251 0.0 0.0 0.00 0.00 0.00 81 1013.6
20180621065600 76 251 0.0 0.0 0.00 0.00 0.00 81 1013.7
20180621065105 76 251 0.0 0.0 0.00 0.00 0.00 82 1013.7
20180621064606 76 251 0.0 0.0 0.00 0.00 0.00 81 1013.7
20180621064110 77 251 0.0 0.0 0.00 0.00 0.00 81 1013.8
20180621063611 77 251 0.0 0.0 0.00 0.00 0.00 82 1013.8
20180621063110 77 251 0.0 0.0 0.00 0.00 0.00 80 1013.8
20180621062612 77 251 0.0 0.0 0.00 0.00 0.00 80 1013.9
20180621062111 77 251 0.0 0.0 0.00 0.00 0.00 81 1013.9
20180621061559 77 251 0.0 0.0 0.00 0.00 0.00 81 1013.9
20180621061059 77 251 0.0 0.0 0.00 0.00 0.00 80 1014.1
20180621060559 77 251 0.0 0.0 0.00 0.00 0.00 80 1014.1
20180621060110 77 251 0.0 0.0 0.00 0.00 0.00 79 1014.1
20180621055558 77 251 0.0 0.0 0.00 0.00 0.00 79 1014.2
20180621055100 77 251 0.0 0.0 0.00 0.00 0.00 79 1014.2
20180621054608 77 251 0.0 0.0 0.00 0.00 0.00 78 1014.2
20180621054108 78 251 0.0 0.0 0.00 0.00 0.00 78 1014.3
20180621053608 78 251 0.0 0.0 0.00 0.00 0.00 78 1014.3
20180621053112 78 251 0.0 0.0 0.00 0.00 0.00 78 1014.3
20180621052553 78 251 0.0 0.0 0.00 0.00 0.00 78 1014.4
20180621052056 78 251 0.0 0.0 0.00 0.00 0.00 77 1014.4
20180621051605 78 251 0.0 0.0 0.00 0.00 0.00 77 1014.4